Tracking 29093 objects as of 14-Jul-2024
HD Live streaming from Space Station
objects crossing your sky now

GAOFEN DUOMO (GFDM)

Track GAOFEN DUOMO (GFDM) now!
10-day predictions


NORAD ID: 45856
Int'l Code: 2020-042A
Perigee: 637.9 km
Apogee: 654.8 km
Inclination: 97.9 °
Period: 97.5 minutes
Semi major axis: 7017 km
RCS: Unknown
Launch date: July 3, 2020
Source: People's Republic of China (PRC)
Launch site: Taiyaun Space Center, China (TSC)
Your satellite tracking list
Your tracking list is empty




NASA's NSSDC Master Catalog

Two Line Element Set (TLE):
1 45856U 20042A   24196.59913237  .00001726  00000-0  25255-3 0  9995
2 45856  97.8673 267.0750 0012010 192.1684 167.9238 14.76866539217317
Source of the keplerian elements: AFSPC